sat.trackr.live / text

‹ back to catalog

STARLINK-34992

NORAD 65412 · 2025-192J

PAYLOAD ACTIVE UNKNOWN

§ Identity

Operator
Country
US
Launch date
2025-08-31
Launch site
AFETR
Launch vehicle
Mass (kg)
RCS (m²)

Purposes: comms

External: N2YO · Heavens-Above · Gunter

§ Orbital elements

Epoch: 2026-09-20T13:19:48.660384Z

Period
94.01 min
Inclination
53.1583°
Eccentricity
0.0001464
Mean motion
15.31720477 rev/d
Perigee alt
469.7 km
Apogee alt
471.7 km
Semi-major
6,848.8 km
B*
4.8938e-4
RAAN
45.4707°
Arg perigee
79.3204°
Mean anomaly
280.7962°
Rev number
5,922

§ Raw data

STARLINK-349921 65412U 25192J   26263.55542431  .00014861  00000+0  48938-3 0  99992 65412  53.1583  45.4707 0001464  79.3204 280.7962 15.31720477 59221

JSON: /api/v1/satellites/65412 · /tle

For live sub-satellite position, see the globe view (requires WebGL).

§ Visibility from observer

Set your observer location to see the next 7 days of passes ≥ 10°. The values pass through the URL so the page stays shareable.

No JS? Fill the form by hand. The geolocation button needs JavaScript.